Regional Weather Roundup
Issued by NWS Newport/Morehead, NC

Current Version | Previous Version | Text Only | Print | Product List | Glossary Off
Versions: 1 2 3 4 5 6 7 8 9 10 11 12 13 14 15 16 17 18 19 20 21 22 23 24 25 26 27 28 29 30 31 32 33 34 35 36 37 38 39 40 41 42 43 44 45 46 47 48 49 50
994 ASUS42 KMHX 080725 RWRMHX WEATHER ROUNDUP FOR EASTERN NORTH CAROLINA NATIONAL WEATHER SERVICE NEWPORT/MOREHEAD CITY NC 200 AM EST MON FEB 08 2016 NOTE: "FAIR" INDICATES FEW OR NO CLOUDS BELOW 12,000 FEET WITH NO SIGNIFICANT WEATHER AND/OR OBSTRUCTIONS TO VISIBILITY NCZ015>017-031-032-045>047-102-103-080800- NORTH COAST CITY SKY/WX TMP DP RH WIND PRES REMARKS EDENTON CLOUDY 41 29 63 NW15G24 29.67R ELIZABETH CITY CLOUDY 41 34 76 NW21G26 29.63R KITTY HAWK CLOUDY 40 37 89 NW14G28 29.55R FOG MANTEO CLOUDY 41 38 89 N18G29 29.59R $$ NCZ045>047-081-094-103-104-080800- CENTRAL COAST CITY SKY/WX TMP DP RH WIND PRES REMARKS FRISCO LGT RAIN 42 39 89 NW17G36 29.54R SWANQUARTER N/A 37 N/A N/A N12G31 29.62 $$ NCZ095-097-098-100-101-080800- SOUTHERN COAST CITY SKY/WX TMP DP RH WIND PRES REMARKS BEAUFORT PTCLDY 41 29 62 NW23G37 29.66R CEDAR ISLAND N/A 41 N/A N/A NW38G49 29.68 JACKSONVILLE CLEAR 39 24 55 NW18 29.72S PINEY ISLAND NOT AVBL WILMINGTON PTCLDY 41 25 53 NW12 29.77S $$ NCZ011>013-027>030-043-044-078>080-089-090>093-098-080800- COASTAL PLAIN CITY SKY/WX TMP DP RH WIND PRES REMARKS AHOSKIE CLOUDY 39 21 49 N5 29.72S CLINTON PTCLDY 38 27 62 NW5 29.80S ELIZABETHTOWN CLEAR 40 26 58 W8 29.82R GOLDSBORO CLEAR 39 23 52 NW10 29.75S GREENVILLE PTCLDY 39 23 52 NW6 29.76S HAVELOCK CLOUDY 40 26 57 NW22G31 29.68S KENANSVILLE N/A 38 24 55 NW6 29.78R KINSTON CLOUDY 39 24 55 NW12 29.75F NEW BERN CLOUDY 40 25 55 NW15G25 29.71R RICHLANDS CLEAR 39 19 45 W7 29.74F ROCKY MOUNT PTCLDY 39 21 48 NW12 29.77S WASHINGTON CLOUDY 39 24 54 NW10 29.71R WHITEVILLE CLEAR 39 28 63 W3 29.83R $$ AMZ130-135-150-152-154-156-158-170-250-252-270-ANZ085-086-088-633-658-670-080800- MARINE OBSERVATIONS STATION/POSITION TIME TEMP WIND PRES WAVE SWELL AIR SEA DIR/SP/G HT/PER HT/PER (UTC) (F) (DEG/KT/KT) (MB) (FT/S) (FT/S) CHESAPEAKE LIGHT 0700 41 340/ 30/ 33 1002.2 64 E VA BEACH 0650 49 53 10/ 35/ 43 996.6 18/11 15/11 DUCK 0700 42 52 340/ 28/ 34 1000.2 2 E DUCK 0711 44 N/A 14/11 10/11 OREGON INLET 0700 41 45 330/ 20/ 30 1000.5 13E OREGON INLT 0700 47 N/A 20/12 13/12 HATTERAS CG 0700 42 46 330/ 32/ 40 1000.2 DIAMOND BUOY 0650 47 70 330/ 39/ 47 997.8 17/12 13/12 CAPE LOOKOUT NOT AVBL BEAUFORT LAB 0700 41 44 330/ 15/ 24 1003.4 30 SE NEW RVR IN 0708 47 58 1003.2 30 SE NEW RVR IN 0625 58 N/A 11/ 7 7/12 27 SE WRIGHTSVLE 0608 45 59 360/ 27/ 35 1004.0 5 SE WRIGHTSVLE 0608 44 52 320/ 21/ 27 1007.7 225 S CAPE HAT 0650 58 69 300/ 41/ 51 N/A 27/12 41 SE CHARLESTON 0650 53 66 320/ 19/ 23 1012.2 8/ 6 3/10 $$

USA.gov is the U.S. government's official web portal to all federal, state and local government web resources and services.